Location: Osnabr�ck
(52.2670°N, 8.0500°E)
Time: 17:48:46
(UTC+02:00)

Tiangong - Visible Passes

Search period start: 05 June 2023 00:00
Search period end: 15 June 2023 00:00
Orbit: 386 x 391 km, 41.5° (Epoch: 05 June)

Date Brightness Start Highest point End Pass type
(mag) Time Alt. Az. Time Alt. Az. Time Alt. Az.
08 Jun 0.1 04:07:42 10° SSW 04:09:06 12° S 04:10:30 10° SSE visible
09 Jun 0.3 03:11:27 11° SSE 03:11:27 11° SSE 03:11:50 10° SSE visible
10 Jun -0.1 03:47:45 12° SSW 03:48:24 12° S 03:49:48 10° SSE visible
